Showing default

ICEYE-X54, 64570

Orbit data source: Space-Track

ICEYE-X54, 64570 is a payload satellite owned by ICEYE (FI) in SSO that was launched on Mon, 23 Jun 2025 UTC via an FALCON 9 launch vehicle from the Air Force Western Test Range (AFWTR). Payload-class satellites include a variety of spacecraft equipped with specific instruments for various scientific and technological missions. These include communications satellites like Starlink; space stations such as the ISS; scientific satellites like the Hubble; Earth observation satellites from companies like Planet Labs, Umbra, and HawkEye 360; GPS; miniature CubeSats for education and research; and military/defense satellites.

Loading next visibility...
Identifier
64570, 2025-135AU
Orbit
SSO
Country
Flag of FIFI / FIN
Related business
Manufacturer
ICEYE
Mission
Operational Commercial Radar Imaging
Bus & Motor
ICEYE, Unknown motor
Mass
80 kg wet, 80 kg dry
Launch date (UTC)
2025-06-23 (8 months ago)
Launch vehicle
FALCON 9
Launch site
Air Force Western Test Range (AFWTR)
Object type
Payload
Rocket body
Debris
Shape & HBR
Box + 1 Pan, 2.4 m
Radar Cross Section
0.776 m², Medium (>0.1 m² and < 1m²)

Expand to show TLE details & history
Last TLE update: 7 hours ago

TLE from 7 hours ago
0 ICEYE-X54
1 64570U 25135AU  26062.55316747  .00004719  00000-0  44989-3 0  9990
2 64570  97.7598 178.1424 0001125 329.1216  30.9937 14.93828877 38121
Epoch: 2026-03-03T13:16Z
TLE epoch observation values (Epoch: 2026-03-03T13:16:33.669Z)
Latitude
-0.00007°
Longitude
177.67155°
Altitude
588.383 km
Speed
7.566 km/s
True Right ascension
11h 52m 34s
True Declination
0° 00' 00"
Sunlit
Object was in full shadow at epoch
Visualization orbit readout
Latitude
Unknown
Longitude
Unknown
Altitude
Unknown
Speed
Unknown
Apparent Right ascension
Unknown
Apparent Declination
Unknown
Sunlit
N/A
Visualization observer readout
Local Sidereal Time
23:38:36
Azimuth
Unknown
Elevation
Unknown
Doppler factor
Unknown
Orbital elements
Apogee altitude
583.809 km
Perigee altitude
582.243 km
Semi-major axis
6,961.163 km
Eccentricity
0.00011
Inclination
97.7598°
RAAN
178.1424°
Arg. of periapsis
329.1216°
True anomaly
31.00034°
Mean anomaly
30.9937°
Eccentric anomaly
30.99702°
Mean motion
3.73698 °/min
Orbital period
96.33 mins
BSTAR
0.00044989
Loading maneuver chart data...
Computing Atmospheric mass density...
Loading historical data...
Loading historical data...
Loading historical data...
Loading historical data...
Loading historical data...
Loading historical data...
Loading historical data...

Documentation

Showing up to 5 results
|